Montross, Virginia, United States (22520)
Lat: 38.09N, Lon: 76.83W
Wx Zone: VAZ075
Local Info
Past Weather Observations for Wednesday, May 27, 2015

NOTE: This archive is for the closest National Weather Service station to Montross. Information may differ from the station used for current weather conditions.

Click here for Long-term Archive

Time Weather Temperature Dewpoint Humidity Pressure Winds Precip Visibility
23:52
Clear
73°F / 23°C 66°F / 19°C 78% 30.15 in
(1021 mb)
SSE 9.2 mph
(SSE 15 kph)
- 10SM
22:52
Clear
75°F / 24°C 68°F / 20°C 78% 30.15 in
(1021 mb)
SSE 8.1 mph
(SSE 13 kph)
- 10SM
21:52
Mostly Cloudy
75°F / 24°C 68°F / 20°C 78% 30.15 in
(1021 mb)
S 10.4 mph
(S 17 kph)
- 10SM
20:52
Mostly Cloudy
75°F / 24°C 70°F / 21°C 83% 30.15 in
(1021 mb)
S 6.9 mph
(S 11 kph)
- 10SM
19:52
Mostly Cloudy
75°F / 24°C 68°F / 20°C 78% 30.12 in
(1020 mb)
S 6.9 mph
(S 11 kph)
- 10SM
19:12
Mostly Cloudy
73°F / 23°C 68°F / 20°C 83% 30.12 in
(1020 mb)
Variable 3.5 mph
(Variable 6 kph)
- 10SM
18:52
Mostly Cloudy
Thunder Storms
75°F / 24°C 70°F / 21°C 83% 30.12 in
(1020 mb)
Variable 3.5 mph
(Variable 6 kph)
- 10SM
18:24
Mostly Cloudy
Thunder Storms
75°F / 24°C 70°F / 21°C 83% 30.12 in
(1020 mb)
SSE 4.6 mph
(SSE 7 kph)
- 10SM
18:13
Mostly Cloudy
75°F / 24°C 70°F / 21°C 83% 30.12 in
(1020 mb)
SE 9.2 mph
(SE 15 kph)
- 10SM
17:52
Mostly Cloudy
Thunder Storms
77°F / 25°C 70°F / 21°C 79% 30.12 in
(1020 mb)
SE 10.4 mph
(SE 17 kph)
- 10SM
17:12
Mostly Cloudy
Thunder Storms
77°F / 25°C 70°F / 21°C 79% 30.12 in
(1020 mb)
SE 13.8 mph
(SE 22 kph)
- 10SM
16:52
Mostly Cloudy
81°F / 27°C 70°F / 21°C 70% 30.12 in
(1020 mb)
SE 15 mph
(SE 24 kph)
- 10SM
15:52
Mostly Cloudy
81°F / 27°C 70°F / 21°C 70% 30.12 in
(1020 mb)
SE 11.5 mph
(SE 19 kph)
- 10SM
14:52
Mostly Cloudy
88°F / 31°C 66°F / 19°C 49% 30.12 in
(1020 mb)
S 13.8 mph
(S 22 kph)
- 10SM
13:52
Mostly Cloudy
88°F / 31°C 66°F / 19°C 49% 30.12 in
(1020 mb)
SSE 13.8 mph
(SSE 22 kph)
- 10SM
12:52
Mostly Cloudy
86°F / 30°C 68°F / 20°C 55% 30.15 in
(1021 mb)
S 15 mph
(S 24 kph)
- 10SM
11:52
Partly Cloudy
84°F / 29°C 70°F / 21°C 62% 30.18 in
(1022 mb)
S 10.4 mph
(S 17 kph)
- 10SM
10:52
Partly Cloudy
81°F / 27°C 70°F / 21°C 70% 30.18 in
(1022 mb)
SE 10.4 mph
(SE 17 kph)
- 10SM
09:52
Partly Cloudy
81°F / 27°C 68°F / 20°C 66% 30.18 in
(1022 mb)
SSE 11.5 mph
(SSE 19 kph)
- 10SM
08:52
Mostly Cloudy
79°F / 26°C 68°F / 20°C 70% 30.18 in
(1022 mb)
S 6.9 mph
(S 11 kph)
- 10SM
07:52
Mostly Cloudy
75°F / 24°C 68°F / 20°C 78% 30.18 in
(1022 mb)
SW 10.4 mph
(SW 17 kph)
- 10SM
07:30
Mostly Cloudy
75°F / 24°C 68°F / 20°C 78% 30.21 in
(1023 mb)
SW 11.5 mph
(SW 19 kph)
- 10SM
06:52
Mostly Cloudy
73°F / 23°C 68°F / 20°C 83% 30.18 in
(1022 mb)
SW 10.4 mph
(SW 17 kph)
- 10SM
06:48
Mostly Cloudy
73°F / 23°C 68°F / 20°C 83% 30.18 in
(1022 mb)
SW 10.4 mph
(SW 17 kph)
- 10SM
05:52
Mostly Cloudy
72°F / 22°C 66°F / 19°C 83% 30.18 in
(1022 mb)
SSE 9.2 mph
(SSE 15 kph)
- 10SM
04:52
Mostly Cloudy
72°F / 22°C 66°F / 19°C 83% 30.18 in
(1022 mb)
S 6.9 mph
(S 11 kph)
- 10SM
03:52
Clear
72°F / 22°C 66°F / 19°C 83% 30.15 in
(1021 mb)
S 6.9 mph
(S 11 kph)
- 10SM
02:52
Clear
73°F / 23°C 66°F / 19°C 78% 30.15 in
(1021 mb)
SW 13.8 mph
(SW 22 kph)
- 10SM
01:52
Clear
72°F / 22°C 66°F / 19°C 83% 30.18 in
(1022 mb)
SW 11.5 mph
(SW 19 kph)
- 10SM
00:52
Clear
73°F / 23°C 66°F / 19°C 78% 30.18 in
(1022 mb)
SSE 10.4 mph
(SSE 17 kph)
- 10SM
Time Weather Temperature Dewpoint Humidity Pressure Winds Precip Visibility


Weather for websites

WeatherForYou.com, LLC is not responsible for any damages or problems caused by this service. Current weather conditions are obtained from the closest station including government and personal stations which may have varying degrees of accuracy. Weather forecasts are derived from the NOAA NDFD. Like all things, this site belongs to Jesus Christ... He just trusts us to maintain it. If you have any questions or comments email webmaster@weatherforyou.com

Copyright © 2015, WeatherForYou.com LLC. All rights reserved.